Wind_Speed
39 40 41 42 44 45 46 47 48 49 50 51 52 52 52 52 52 52 53 53 54 55 56 57 58 59 60 61 63 64 65 67 68 68 70 71 72 73 73 73 73 74 75
40 41 42 44 45 46 47 48 49 51 52 52 52 52 52 53 53 53 54 55 56 56 57 58 59 60 61 62 63 65 66 69 71 71 72 73 75 76 77 77 78 79 79
41 42 44 45 46 47 48 49 51 52 52 53 53 53 53 53 54 55 55 56 57 57 58 59 60 61 62 63 65 67 69 71 73 75 75 76 77 79 80 81 82 82 82
42 43 44 46 47 48 49 50 51 52 53 53 53 53 54 54 55 56 56 57 57 58 59 60 61 62 64 66 68 70 72 74 76 78 78 79 80 81 83 83 82 80 79
42 44 45 46 48 49 50 51 52 52 53 53 53 54 55 55 56 57 57 57 58 59 60 61 63 65 67 69 72 74 76 79 80 81 81 81 81 82 82 81 79 76 73
43 44 46 47 49 50 50 51 52 52 52 53 53 54 55 56 57 58 59 59 60 61 62 64 66 69 71 73 76 78 81 83 84 84 83 82 81 80 78 75 72 69 64
44 45 47 48 49 50 50 51 51 52 52 53 55 56 56 57 58 59 60 61 63 64 66 68 70 73 75 78 80 82 83 85 85 85 83 80 77 74 71 67 64 60 55
44 46 47 49 49 49 50 50 51 53 54 55 55 56 57 59 60 62 63 64 66 67 70 72 75 77 80 83 84 85 84 83 82 81 78 74 70 67 63 60 56 52 48
46 47 47 48 48 49 50 51 53 54 54 55 56 58 59 60 62 64 66 67 69 71 73 76 80 82 84 87 87 86 83 79 77 75 72 67 63 60 57 53 50 47 43
46 46 47 47 48 49 51 52 53 55 56 57 58 60 61 63 65 67 70 72 74 75 78 81 84 87 87 87 86 83 79 74 71 67 63 59 56 53 50 48 45 43 40
46 46 47 48 49 50 52 53 55 56 57 59 60 61 63 66 68 71 74 77 79 81 83 84 86 87 86 83 81 78 74 70 65 60 55 51 49 46 44 43 41 40 37
46 46 47 49 50 51 53 55 56 58 59 60 62 63 66 69 71 74 77 81 83 85 86 86 86 84 81 78 75 72 68 63 58 53 48 45 42 41 39 38 37 36 35
46 47 48 50 51 53 55 56 58 60 61 63 65 67 69 72 75 78 81 83 85 87 87 86 83 79 76 72 68 64 60 55 50 46 42 39 38 37 35 34 34 33 32
47 48 49 51 53 55 56 58 60 62 64 66 69 72 74 76 78 81 83 84 86 86 85 81 76 72 68 63 59 55 51 47 44 40 37 35 34 34 33 32 31 30 29
48 49 51 53 54 56 58 60 62 64 68 71 73 76 78 80 81 84 85 86 86 84 80 74 69 64 59 54 51 47 44 41 38 36 34 32 31 31 30 29 28 27 26
49 51 53 55 57 59 60 62 65 68 71 74 77 80 82 83 84 85 85 84 82 78 73 67 62 57 53 48 44 41 38 36 34 33 32 31 29 29 28 28 27 26 25
51 53 55 57 59 61 64 66 68 71 74 77 80 82 84 85 85 84 82 79 75 70 65 60 56 52 48 43 40 36 33 32 31 30 29 29 28 27 26 26 25 24 23
53 55 57 60 62 65 68 71 74 76 77 78 81 83 84 83 82 81 78 73 67 62 59 56 52 47 43 40 36 33 30 29 29 29 28 27 27 25 24 24 23 23 22
56 58 60 63 66 69 72 75 78 80 82 82 81 81 81 81 79 75 71 67 61 57 54 51 47 43 40 36 33 30 28 28 28 28 27 26 25 24 23 23 22 22 21
58 61 64 67 70 74 77 79 81 83 83 82 80 79 78 77 73 68 63 60 56 53 50 46 42 39 36 33 31 28 27 27 27 27 26 25 24 22 22 21 21 20 20
62 65 68 72 75 78 80 82 82 82 81 80 78 77 76 72 67 61 57 54 51 49 45 41 38 35 33 31 29 28 27 27 26 26 25 24 23 22 21 20 20 20 20
66 69 73 76 79 81 82 82 82 81 80 79 76 73 70 65 60 55 52 49 47 44 41 38 35 33 31 30 28 27 27 26 26 25 24 23 22 21 21 20 20 20 20
71 74 77 80 81 82 81 81 81 80 78 75 71 67 62 57 53 51 48 45 43 40 38 35 32 30 30 29 28 27 26 25 25 24 23 22 21 21 20 20 20 20 20
76 78 80 81 81 81 81 80 78 76 73 69 64 60 56 52 50 47 44 42 40 37 35 33 31 30 29 28 27 26 25 25 24 23 23 22 21 21 21 22 21 21 21
78 80 81 81 81 80 79 76 73 69 66 62 58 55 52 49 46 43 41 39 37 35 33 31 30 29 28 27 26 25 24 24 23 23 22 22 22 22 22 22 22 22 22
80 80 80 80 79 76 73 70 66 63 60 57 53 50 47 44 42 40 38 36 34 32 31 30 29 28 27 26 25 25 24 23 23 23 23 22 23 23 23 23 23 23 23
Wind_Direction
274 277 279 282 284 286 288 290 291 293 294 295 296 296 296 296 296 296 296 296 296 295 295 295 294 294 294 294 295 295 295 295 295 295 295 295 295 294 294 293 292 291 290
276 279 281 283 285 287 289 291 292 293 295 295 296 296 296 296 296 296 296 296 296 296 296 295 295 295 295 296 296 296 296 296 296 296 296 296 296 295 295 294 294 293 292
278 281 283 285 287 289 291 292 293 294 295 296 296 296 297 297 297 297 297 297 297 297 297 296 296 296 297 297 297 297 297 298 298 298 297 297 296 296 295 295 295 294 293
280 282 284 286 288 290 292 293 294 295 296 296 297 297 297 297 297 297 298 298 298 298 298 298 298 298 298 298 299 299 299 299 299 298 298 297 297 297 296 295 294 293 293
282 284 286 288 290 292 293 294 295 295 296 297 297 297 298 298 298 298 299 299 299 299 299 299 299 299 300 300 300 300 300 300 299 299 299 298 298 297 296 295 294 293 292
284 286 288 290 292 293 294 295 295 296 297 297 298 299 299 299 300 300 300 300 300 300 300 300 300 301 301 301 301 302 302 301 301 300 300 299 298 297 296 295 294 292 291
286 288 290 292 293 294 294 295 296 297 298 298 299 299 300 300 300 301 301 301 301 301 301 302 302 302 302 302 302 303 303 302 301 301 300 299 298 297 295 294 293 292 291
289 290 292 293 294 294 295 296 297 298 299 299 300 300 301 301 301 301 301 302 302 303 303 303 303 303 303 303 303 303 303 302 300 300 299 298 297 296 294 294 292 291 290
290 292 293 294 294 295 296 297 298 299 299 300 301 301 301 301 301 302 302 302 303 303 304 304 304 304 304 304 304 303 302 301 299 299 298 297 296 295 294 293 292 291 289
292 293 294 294 295 296 297 298 298 299 300 301 301 302 302 302 302 302 303 303 304 304 305 306 306 306 306 305 304 303 302 300 299 298 297 296 295 293 292 291 291 290 289
293 294 294 295 296 297 297 298 299 300 301 301 302 302 303 303 304 304 304 305 305 306 306 306 306 306 305 304 303 302 301 300 299 297 295 294 292 291 290 290 290 289 288
294 294 295 296 297 298 299 300 300 301 302 302 302 303 304 304 305 305 305 306 306 307 307 307 307 306 305 304 302 301 300 299 298 296 295 293 291 290 289 288 288 288 288
295 295 296 297 298 299 300 301 301 302 302 303 303 304 304 305 305 306 306 307 307 307 308 308 307 306 305 304 302 301 299 298 297 296 294 292 291 290 289 288 287 287 286
296 296 297 298 299 300 301 302 302 303 303 304 304 305 305 306 306 306 307 307 307 307 308 308 307 306 305 304 302 300 299 297 296 294 293 291 290 290 288 287 287 286 284
297 297 298 299 300 300 301 302 303 304 304 305 305 306 306 307 307 307 307 308 308 308 308 308 307 306 305 303 301 300 298 296 294 294 293 291 290 289 288 287 287 284 282
298 298 299 300 301 301 302 303 304 305 305 306 307 307 307 308 308 308 308 309 309 308 308 308 308 307 305 303 300 299 296 294 293 293 292 291 290 288 287 286 285 283 281
298 299 300 301 302 302 303 303 304 305 306 307 307 307 307 308 308 309 309 309 308 308 307 308 307 306 305 303 300 298 294 292 292 292 291 290 290 288 286 285 283 281 280
300 300 301 302 303 303 304 304 305 306 306 307 307 307 307 307 308 309 308 308 307 307 307 306 306 305 303 301 299 296 293 292 292 292 291 290 290 288 285 283 281 280 280
301 302 302 303 304 304 305 305 306 306 307 307 307 307 307 307 308 308 307 307 307 306 306 305 304 302 301 299 297 294 292 292 292 292 291 291 289 287 285 282 280 279 278
302 302 303 304 304 305 306 306 307 307 307 307 307 307 307 307 307 307 306 305 305 305 305 304 302 300 298 296 294 291 290 291 291 291 291 290 288 286 283 282 280 278 276
302 303 304 305 306 306 307 307 307 307 307 307 308 308 308 307 307 306 305 304 304 304 303 302 300 298 295 294 291 290 289 289 289 289 289 289 287 284 282 280 279 278 277
303 304 305 306 306 307 307 307 307 307 308 308 308 308 307 307 306 305 305 304 304 303 302 301 299 296 293 292 289 288 288 287 286 286 287 286 285 283 281 278 277 277 276
304 305 306 306 307 307 307 308 308 307 307 307 307 307 306 305 305 304 304 303 303 302 300 299 297 294 292 290 289 288 286 284 283 284 284 284 282 281 279 278 277 276 275
305 306 306 307 307 307 307 308 307 307 307 307 307 306 305 304 304 303 302 302 302 301 299 297 295 293 291 289 288 287 285 283 282 282 282 281 280 279 278 277 276 275 273
306 307 307 307 307 308 308 308 308 308 307 307 306 305 304 304 303 302 301 301 301 299 297 295 294 292 290 288 287 285 283 281 280 279 280 279 278 278 278 277 275 273 272
307 308 308 308 308 308 308 308 308 308 308 307 306 305 304 304 303 302 301 300 299 298 297 294 293 292 289 286 285 283 281 279 278 278 279 278 278 278 277 276 275 273 272
Height
5720 5719 5718 5716 5713 5711 5708 5705 5702 5698 5694 5690 5686 5682 5677 5673 5668 5664 5660 5655 5650 5645 5641 5636 5631 5626 5621 5615 5610 5604 5598 5592 5588 5586 5579 5573 5566 5561 5556 5550 5545 5540 5536
5712 5710 5708 5706 5703 5701 5697 5694 5690 5686 5682 5678 5674 5669 5665 5660 5656 5651 5647 5642 5637 5632 5627 5621 5616 5611 5605 5599 5594 5588 5582 5575 5569 5566 5561 5553 5546 5538 5532 5526 5520 5515 5510
5702 5700 5698 5696 5693 5689 5686 5683 5679 5674 5670 5666 5661 5657 5652 5647 5643 5638 5633 5628 5623 5617 5612 5606 5601 5595 5590 5583 5577 5571 5564 5557 5550 5544 5540 5533 5525 5516 5509 5503 5496 5490 5484
5692 5690 5688 5685 5682 5678 5675 5671 5666 5662 5657 5653 5648 5643 5639 5634 5629 5624 5619 5614 5609 5603 5597 5591 5585 5579 5573 5566 5560 5553 5545 5538 5530 5523 5517 5511 5503 5494 5485 5478 5473 5466 5460
5682 5679 5677 5673 5670 5666 5663 5658 5654 5649 5645 5640 5635 5630 5625 5620 5615 5610 5605 5600 5594 5588 5582 5575 5569 5562 5555 5548 5540 5533 5524 5516 5508 5500 5494 5487 5479 5470 5461 5453 5448 5443 5438
5671 5668 5665 5662 5658 5654 5650 5646 5641 5637 5632 5627 5622 5617 5611 5606 5600 5595 5590 5585 5579 5573 5566 5559 5552 5545 5537 5529 5520 5511 5502 5492 5483 5476 5469 5462 5454 5445 5437 5430 5424 5420 5418
5660 5657 5654 5650 5646 5642 5638 5633 5629 5624 5619 5614 5609 5603 5598 5591 5586 5580 5574 5569 5563 5556 5549 5542 5534 5526 5516 5508 5500 5491 5481 5469 5458 5450 5444 5437 5429 5421 5414 5409 5403 5399 5397
5649 5646 5642 5638 5634 5630 5625 5621 5616 5611 5606 5601 5595 5589 5583 5577 5570 5564 5558 5553 5546 5539 5531 5522 5514 5506 5495 5485 5477 5469 5459 5448 5436 5427 5419 5413 5406 5400 5393 5389 5385 5383 5382
5637 5634 5630 5626 5622 5617 5613 5608 5603 5598 5593 5587 5581 5575 5569 5562 5555 5548 5541 5535 5529 5522 5513 5503 5492 5484 5474 5462 5452 5444 5436 5426 5415 5406 5398 5392 5386 5381 5375 5372 5369 5367 5367
5626 5622 5618 5614 5609 5605 5600 5595 5590 5584 5579 5573 5567 5560 5553 5547 5539 5531 5523 5517 5511 5503 5494 5484 5471 5459 5449 5437 5426 5417 5410 5403 5395 5388 5381 5374 5369 5365 5360 5357 5354 5353 5352
5614 5610 5605 5601 5597 5592 5587 5582 5576 5571 5565 5559 5553 5546 5538 5530 5522 5513 5504 5495 5487 5480 5472 5462 5450 5437 5425 5414 5403 5393 5386 5379 5374 5369 5364 5359 5355 5351 5348 5345 5342 5340 5340
5602 5597 5593 5588 5584 5579 5573 5568 5562 5556 5550 5543 5537 5530 5522 5513 5504 5495 5485 5475 5464 5455 5447 5437 5426 5414 5403 5392 5382 5373 5365 5359 5354 5351 5347 5344 5341 5338 5336 5333 5331 5329 5328
5590 5585 5580 5576 5570 5565 5559 5553 5547 5540 5534 5527 5520 5513 5506 5497 5486 5475 5465 5454 5443 5432 5422 5412 5402 5391 5380 5371 5362 5354 5347 5342 5338 5335 5333 5330 5328 5326 5324 5323 5321 5319 5319
5577 5573 5568 5562 5557 5551 5545 5538 5532 5525 5517 5510 5502 5494 5487 5478 5467 5456 5445 5435 5423 5412 5401 5391 5380 5370 5360 5352 5345 5338 5332 5327 5324 5322 5320 5319 5317 5315 5314 5312 5311 5310 5310
5565 5560 5554 5549 5543 5537 5531 5524 5516 5509 5499 5491 5483 5473 5465 5457 5447 5434 5422 5412 5401 5389 5379 5370 5361 5352 5344 5337 5330 5324 5319 5316 5313 5311 5309 5308 5307 5305 5304 5303 5302 5301 5301
5552 5546 5541 5535 5529 5522 5516 5510 5501 5492 5484 5473 5462 5451 5442 5432 5423 5412 5400 5389 5378 5367 5357 5350 5342 5335 5328 5322 5317 5313 5309 5305 5303 5301 5299 5298 5297 5296 5295 5294 5293 5293 5292
5538 5533 5527 5520 5514 5507 5499 5492 5486 5478 5468 5456 5444 5432 5420 5410 5400 5389 5378 5368 5359 5348 5340 5333 5326 5320 5314 5309 5305 5302 5299 5296 5294 5292 5290 5289 5288 5287 5286 5285 5285 5284 5284
5524 5518 5512 5505 5498 5490 5482 5474 5465 5457 5450 5441 5428 5413 5400 5389 5379 5368 5357 5348 5341 5332 5324 5318 5312 5306 5302 5297 5294 5291 5289 5287 5285 5283 5282 5280 5279 5278 5278 5277 5277 5277 5277
5510 5503 5496 5489 5481 5473 5464 5455 5445 5436 5426 5417 5408 5396 5382 5370 5360 5349 5338 5330 5323 5317 5310 5304 5298 5294 5290 5286 5284 5281 5280 5278 5276 5275 5273 5272 5271 5270 5270 5269 5269 5269 5270
5495 5488 5480 5473 5464 5455 5445 5435 5425 5414 5404 5394 5384 5373 5362 5352 5343 5333 5323 5315 5308 5302 5296 5291 5286 5282 5279 5276 5274 5272 5271 5269 5268 5266 5265 5264 5263 5262 5262 5262 5262 5262 5263
5479 5472 5463 5454 5445 5435 5425 5414 5404 5393 5382 5372 5363 5352 5340 5331 5323 5315 5308 5301 5294 5288 5283 5279 5275 5271 5268 5266 5264 5263 5262 5260 5259 5258 5257 5256 5255 5255 5255 5255 5255 5255 5256
5463 5455 5446 5436 5426 5415 5404 5393 5382 5371 5361 5351 5342 5333 5322 5312 5305 5299 5292 5286 5281 5275 5271 5267 5264 5261 5258 5256 5255 5254 5253 5252 5251 5250 5249 5248 5248 5248 5248 5248 5248 5248 5249
5445 5436 5426 5416 5405 5394 5383 5372 5361 5351 5340 5331 5321 5313 5305 5297 5290 5284 5279 5273 5268 5264 5260 5256 5254 5251 5249 5247 5246 5245 5244 5243 5242 5242 5241 5241 5240 5240 5240 5241 5241 5241 5242
5425 5415 5405 5395 5384 5373 5362 5352 5341 5330 5320 5311 5303 5295 5288 5282 5276 5270 5265 5261 5256 5252 5249 5246 5243 5241 5239 5238 5237 5236 5235 5234 5234 5233 5233 5233 5233 5233 5233 5233 5233 5234 5234
5405 5395 5384 5373 5363 5352 5341 5331 5321 5311 5302 5293 5286 5279 5273 5267 5262 5257 5253 5249 5245 5241 5238 5235 5233 5231 5230 5229 5228 5227 5226 5226 5225 5225 5225 5225 5225 5225 5225 5225 5225 5226 5226
5385 5374 5363 5352 5341 5331 5320 5311 5302 5293 5285 5277 5270 5264 5259 5253 5249 5244 5241 5237 5234 5231 5228 5226 5223 5222 5220 5219 5219 5218 5218 5217 5217 5217 5217 5217 5217 5217 5217 5217 5217 5218 5218